When you browse on this site, cookies collect data to enhance your experience and personalize the content and advertising you see.
Visit our Privacy Policy to learn more. By continuing to use the site, you agree to this use of cookies and data.
  • în România
  • Lista ţărilor
  • Pe 7 zile
  • Temperatura apei
  • Hartă satelitară
  • Meteo pe hartă
  • Widget-uri
  • user-avatar
    Intrare

    Meteo pe oră la Wakefield

    Astăzi, 19 Aprilie, Vineri

    Timp Temperatura Precipitaţii Vânt Presiune Umiditate
    00:00 +9°C° 0 mm 1 m/s 765 mmHg 88%
    01:00 +9°C° 0 mm 1 m/s 765 mmHg 89%
    02:00 +9°C° 0 mm 1 m/s 765 mmHg 89%
    03:00 +8°C° 0 mm 1 m/s 766 mmHg 90%
    04:00 +9°C° 0 mm 1 m/s 766 mmHg 90%
    05:00 +9°C° 0 mm 1 m/s 766 mmHg 90%
    06:00 +9°C° 0 mm 1 m/s 766 mmHg 89%
    07:00 +10°C° 0 mm 2 m/s 766 mmHg 83%
    08:00 +13°C° 0 mm 2 m/s 766 mmHg 76%
    09:00 +14°C° 0 mm 2 m/s 767 mmHg 70%
    10:00 +16°C° 0 mm 2 m/s 767 mmHg 64%
    11:00 +18°C° 0 mm 3 m/s 767 mmHg 59%
    12:00 +19°C° 0 mm 3 m/s 767 mmHg 53%
    13:00 +20°C° 0 mm 3 m/s 767 mmHg 52%
    14:00 +20°C° 0 mm 3 m/s 767 mmHg 51%
    15:00 +21°C° 0 mm 3 m/s 767 mmHg 49%
    16:00 +20°C° 0 mm 3 m/s 767 mmHg 54%
    17:00 +18°C° 0 mm 3 m/s 767 mmHg 59%
    18:00 +17°C° 0 mm 3 m/s 767 mmHg 64%
    19:00 +16°C° 0 mm 2 m/s 767 mmHg 70%
    20:00 +14°C° 0 mm 2 m/s 768 mmHg 75%
    21:00 +12°C° 0 mm 1 m/s 768 mmHg 81%
    22:00 +11°C° 0 mm 1 m/s 768 mmHg 81%
    23:00 +11°C° 0 mm 1 m/s 768 mmHg 82%

    Mâine, 20 Aprilie, Sâmbătă

    Timp Temperatura Precipitaţii Vânt Presiune Umiditate
    00:00 +10°C° 0 mm 1 m/s 768 mmHg 82%
    01:00 +9°C° 0 mm 0 m/s 768 mmHg 81%
    02:00 +9°C° 0 mm 0 m/s 768 mmHg 81%
    03:00 +8°C° 0 mm 0 m/s 768 mmHg 81%
    04:00 +8°C° 0 mm 0 m/s 768 mmHg 79%
    05:00 +9°C° 0 mm 0 m/s 768 mmHg 78%
    06:00 +9°C° 0 mm 0 m/s 768 mmHg 77%
    07:00 +11°C° 0 mm 0 m/s 768 mmHg 70%
    08:00 +13°C° 0 mm 0 m/s 768 mmHg 63%
    09:00 +15°C° 0 mm 0 m/s 768 mmHg 56%
    10:00 +19°C° 0 mm 1 m/s 767 mmHg 51%
    11:00 +20°C° 0 mm 1 m/s 767 mmHg 46%
    12:00 +22°C° 0 mm 1 m/s 767 mmHg 41%
    13:00 +22°C° 0 mm 1 m/s 767 mmHg 40%
    14:00 +23°C° 0 mm 1 m/s 766 mmHg 39%
    15:00 +23°C° 0 mm 1 m/s 766 mmHg 37%
    16:00 +22°C° 0 mm 1 m/s 766 mmHg 42%
    17:00 +21°C° 0 mm 1 m/s 765 mmHg 48%
    18:00 +21°C° 0 mm 1 m/s 765 mmHg 53%
    19:00 +18°C° 0 mm 2 m/s 765 mmHg 60%
    20:00 +16°C° 0 mm 2 m/s 765 mmHg 68%
    21:00 +15°C° 0 mm 2 m/s 765 mmHg 75%
    22:00 +14°C° 0 mm 2 m/s 765 mmHg 76%
    23:00 +13°C° 0 mm 2 m/s 765 mmHg 78%

    Poimâine, 21 Aprilie, Duminică

    Timp Temperatura Precipitaţii Vânt Presiune Umiditate
    00:00 +13°C° 0 mm 1 m/s 764 mmHg 79%
    01:00 +12°C° 0 mm 1 m/s 764 mmHg 79%
    02:00 +12°C° 0 mm 1 m/s 763 mmHg 79%
    03:00 +11°C° 0 mm 1 m/s 763 mmHg 80%
    04:00 +11°C° 0 mm 1 m/s 762 mmHg 79%
    05:00 +11°C° 0 mm 1 m/s 762 mmHg 78%
    06:00 +11°C° 0 mm 1 m/s 761 mmHg 77%
    07:00 +13°C° 0 mm 1 m/s 761 mmHg 70%
    08:00 +15°C° 0 mm 2 m/s 761 mmHg 63%
    09:00 +17°C° 0 mm 2 m/s 760 mmHg 56%
    10:00 +18°C° 0 mm 2 m/s 760 mmHg 51%
    11:00 +19°C° 0 mm 3 m/s 759 mmHg 46%
    12:00 +20°C° 0 mm 3 m/s 759 mmHg 41%
    13:00 +20°C° 0 mm 3 m/s 758 mmHg 41%
    14:00 +21°C° 0 mm 3 m/s 757 mmHg 41%
    15:00 +21°C° 0 mm 4 m/s 756 mmHg 42%
    16:00 +20°C° 0 mm 3 m/s 756 mmHg 45%
    17:00 +20°C° 0 mm 3 m/s 756 mmHg 49%
    18:00 +19°C° 0 mm 3 m/s 755 mmHg 53%
    19:00 +17°C° 0 mm 3 m/s 755 mmHg 58%
    20:00 +16°C° 0 mm 3 m/s 755 mmHg 63%
    21:00 +15°C° 0 mm 2 m/s 755 mmHg 68%
    22:00 +14°C° 0 mm 2 m/s 754 mmHg 71%
    23:00 +13°C° 0 mm 3 m/s 754 mmHg 74%

    22 Aprilie, Luni

    Timp Temperatura Precipitaţii Vânt Presiune Umiditate
    00:00 +12°C° 0 mm 3 m/s 753 mmHg 77%
    01:00 +11°C° 0 mm 3 m/s 753 mmHg 79%
    02:00 +12°C° 0 mm 2 m/s 752 mmHg 80%
    03:00 +10°C° 0 mm 2 m/s 752 mmHg 82%
    04:00 +10°C° 0 mm 2 m/s 752 mmHg 83%
    05:00 +10°C° 0 mm 2 m/s 751 mmHg 84%
    06:00 +10°C° 0 mm 2 m/s 751 mmHg 84%
    07:00 +13°C° 0 mm 2 m/s 751 mmHg 78%
    08:00 +14°C° 0 mm 3 m/s 751 mmHg 72%
    09:00 +16°C° 0 mm 3 m/s 750 mmHg 66%
    10:00 +18°C° 0 mm 4 m/s 750 mmHg 60%
    11:00 +19°C° 0 mm 4 m/s 750 mmHg 55%
    12:00 +20°C° 0 mm 5 m/s 749 mmHg 50%
    13:00 +21°C° 0 mm 5 m/s 749 mmHg 50%
    14:00 +21°C° 0 mm 5 m/s 749 mmHg 50%
    15:00 +21°C° 0 mm 5 m/s 748 mmHg 50%
    16:00 +20°C° 0 mm 5 m/s 748 mmHg 53%
    17:00 +19°C° 0 mm 5 m/s 748 mmHg 56%
    18:00 +17°C° 0 mm 5 m/s 748 mmHg 59%
    19:00 +15°C° 0 mm 4 m/s 748 mmHg 60%
    20:00 +13°C° 0 mm 3 m/s 748 mmHg 62%
    21:00 +12°C° 0 mm 3 m/s 748 mmHg 64%
    22:00 +12°C° 0 mm 2 m/s 748 mmHg 68%
    23:00 +10°C° 0 mm 2 m/s 748 mmHg 72%

    23 Aprilie, Marţi

    Timp Temperatura Precipitaţii Vânt Presiune Umiditate
    00:00 +9°C° 0 mm 2 m/s 748 mmHg 76%
    01:00 +9°C° 0 mm 2 m/s 747 mmHg 79%
    02:00 +9°C° 0 mm 2 m/s 747 mmHg 81%
    03:00 +8°C° 0 mm 2 m/s 747 mmHg 84%
    04:00 +8°C° 0 mm 2 m/s 746 mmHg 86%
    05:00 +9°C° 0 mm 2 m/s 746 mmHg 87%
    06:00 +9°C° 0 mm 2 m/s 746 mmHg 88%
    07:00 +10°C° 0 mm 3 m/s 746 mmHg 83%
    08:00 +12°C° 0 mm 3 m/s 746 mmHg 78%
    09:00 +13°C° 0 mm 4 m/s 746 mmHg 73%
    10:00 +14°C° 0 mm 4 m/s 746 mmHg 69%
    11:00 +15°C° 0 mm 5 m/s 745 mmHg 65%
    12:00 +16°C° 0 mm 5 m/s 745 mmHg 60%
    13:00 +17°C° 0 mm 5 m/s 745 mmHg 60%
    14:00 +17°C° 0 mm 6 m/s 745 mmHg 59%
    15:00 +17°C° 0 mm 6 m/s 744 mmHg 58%
    16:00 +16°C° 0 mm 5 m/s 744 mmHg 61%
    17:00 +15°C° 0 mm 5 m/s 744 mmHg 64%
    18:00 +14°C° 0 mm 5 m/s 744 mmHg 67%
    19:00 +12°C° 0 mm 4 m/s 745 mmHg 70%
    20:00 +11°C° 0 mm 4 m/s 745 mmHg 73%
    21:00 +10°C° 0 mm 3 m/s 746 mmHg 76%
    22:00 +9°C° 0 mm 3 m/s 746 mmHg 79%
    23:00 +9°C° 0 mm 3 m/s 746 mmHg 81%

    24 Aprilie, Miercuri

    Timp Temperatura Precipitaţii Vânt Presiune Umiditate
    00:00 +8°C° 0 mm 2 m/s 746 mmHg 84%
    01:00 +8°C° 0 mm 2 m/s 746 mmHg 86%
    02:00 +8°C° 0 mm 2 m/s 746 mmHg 87%
    03:00 +8°C° 0 mm 2 m/s 745 mmHg 89%
    04:00 +8°C° 0 mm 2 m/s 745 mmHg 89%
    05:00 +8°C° 0 mm 2 m/s 745 mmHg 88%
    06:00 +8°C° 0 mm 2 m/s 746 mmHg 88%
    07:00 +10°C° 0 mm 2 m/s 746 mmHg 82%
    08:00 +13°C° 0 mm 2 m/s 746 mmHg 76%
    09:00 +14°C° 0 mm 3 m/s 746 mmHg 71%
    10:00 +17°C° 0.1 mm 3 m/s 746 mmHg 69%
    11:00 +18°C° 0.1 mm 3 m/s 746 mmHg 66%
    12:00 +20°C° 0.1 mm 4 m/s 746 mmHg 64%
    13:00 +20°C° 0.7 mm 4 m/s 746 mmHg 66%
    14:00 +20°C° 0.7 mm 4 m/s 746 mmHg 67%
    15:00 +19°C° 0.7 mm 4 m/s 746 mmHg 68%
    16:00 +19°C° 0.3 mm 4 m/s 746 mmHg 70%
    17:00 +19°C° 0.3 mm 3 m/s 747 mmHg 72%
    18:00 +18°C° 0.3 mm 3 m/s 747 mmHg 74%
    19:00 +17°C° 0.2 mm 3 m/s 747 mmHg 77%
    20:00 +16°C° 0.2 mm 3 m/s 747 mmHg 79%
    21:00 +14°C° 0.2 mm 3 m/s 748 mmHg 82%
    22:00 +14°C° 0.2 mm 3 m/s 748 mmHg 83%
    23:00 +13°C° 0.2 mm 3 m/s 748 mmHg 85%
    Arată mai mult